FDX44 LFPG-KMEM

Flight info

Callsign FDX44
Flight time N/A
Altitude 30000
Route ELCOB UT300 RUBIX DCT SENLO DCT JSY DCT LIZAD DCT LESLU/N0483F320 DCT MALOT/M083F320 DCT 54N020W 54N030W 54N040W 53N050W DCT RIKAL/N0476F340 DCT ANATI DCT POLTY Q804 DERLO DCT WOOST DCT ROD DCT PXV BLUZZ5
Aircraft B77L/H-SDE1E2E3FGHIJ2J3J4J5M1RWXY/LB1D1

Departure

Time 2026-05-03 21:59
Airport Charles de Gaulle International Airport (LFPG)

Arrival

Time N/A
Airport Memphis International Airport (KMEM)
Time Latitude Longitude Altitude Speed Heading
2026-05-03 21:10 49.01317 2.49957 359 ft 0 kts 175°
2026-05-03 21:41 49.01320 2.49957 359 ft 3 kts 175°
2026-05-03 21:41 49.01347 2.49953 359 ft 4 kts 175°
2026-05-03 21:41 49.01373 2.49948 361 ft 4 kts 160°
2026-05-03 21:41 49.01395 2.49929 368 ft 4 kts 123°
2026-05-03 21:42 49.01402 2.49896 361 ft 2 kts 85°
2026-05-03 21:42 49.01402 2.49894 361 ft 1 kts 85°
2026-05-03 21:45 49.01402 2.49895 361 ft 1 kts 85°
2026-05-03 21:45 49.01404 2.49923 363 ft 3 kts 85°
2026-05-03 21:45 49.01406 2.49969 362 ft 8 kts 85°
2026-05-03 21:46 49.01414 2.50114 366 ft 17 kts 85°
2026-05-03 21:46 49.01423 2.50269 363 ft 14 kts 85°
2026-05-03 21:46 49.01443 2.50410 367 ft 14 kts 47°
2026-05-03 21:46 49.01538 2.50427 359 ft 14 kts 357°
2026-05-03 21:47 49.01612 2.50490 366 ft 14 kts 81°
2026-05-03 21:47 49.01624 2.50640 359 ft 15 kts 83°
2026-05-03 21:47 49.01634 2.50822 361 ft 20 kts 85°
2026-05-03 21:47 49.01644 2.51037 365 ft 20 kts 86°
2026-05-03 21:48 49.01654 2.51252 364 ft 20 kts 86°
2026-05-03 21:48 49.01665 2.51467 359 ft 20 kts 85°
2026-05-03 21:48 49.01677 2.51682 364 ft 20 kts 85°
2026-05-03 21:48 49.01689 2.51893 366 ft 20 kts 84°
2026-05-03 21:49 49.01701 2.52108 362 ft 20 kts 85°
2026-05-03 21:49 49.01713 2.52323 366 ft 20 kts 85°
2026-05-03 21:49 49.01725 2.52538 364 ft 20 kts 85°
2026-05-03 21:49 49.01735 2.52753 362 ft 20 kts 85°
2026-05-03 21:50 49.01747 2.52967 366 ft 20 kts 85°
2026-05-03 21:50 49.01758 2.53182 366 ft 20 kts 85°
2026-05-03 21:50 49.01769 2.53398 360 ft 20 kts 85°
2026-05-03 21:50 49.01781 2.53615 361 ft 21 kts 85°
2026-05-03 21:51 49.01794 2.53832 364 ft 21 kts 85°
2026-05-03 21:51 49.01805 2.54046 362 ft 21 kts 85°
2026-05-03 21:51 49.01817 2.54263 367 ft 21 kts 85°
2026-05-03 21:51 49.01828 2.54481 364 ft 21 kts 85°
2026-05-03 21:52 49.01839 2.54698 359 ft 21 kts 86°
2026-05-03 21:52 49.01850 2.54915 359 ft 21 kts 85°
2026-05-03 21:52 49.01863 2.55133 364 ft 21 kts 84°
2026-05-03 21:52 49.01876 2.55351 366 ft 21 kts 85°
2026-05-03 21:53 49.01887 2.55565 365 ft 21 kts 85°
2026-05-03 21:53 49.01899 2.55782 361 ft 21 kts 85°
2026-05-03 21:53 49.01910 2.55999 359 ft 21 kts 85°
2026-05-03 21:53 49.01922 2.56217 359 ft 21 kts 85°
2026-05-03 21:54 49.01934 2.56429 366 ft 16 kts 85°
2026-05-03 21:54 49.01944 2.56572 361 ft 12 kts 73°
2026-05-03 21:54 49.02014 2.56632 364 ft 12 kts 360°
2026-05-03 21:54 49.02100 2.56623 365 ft 12 kts 355°
2026-05-03 21:55 49.02179 2.56613 363 ft 11 kts 355°
2026-05-03 21:55 49.02201 2.56610 362 ft 0 kts 355°
2026-05-03 21:56 49.02209 2.56609 361 ft 5 kts 355°
2026-05-03 21:56 49.02270 2.56601 361 ft 10 kts 353°
2026-05-03 21:56 49.02330 2.56556 365 ft 10 kts 315°
2026-05-03 21:56 49.02339 2.56468 358 ft 0 kts 265°
2026-05-03 21:57 49.02339 2.56455 358 ft 8 kts 265°
2026-05-03 21:57 49.02326 2.56228 360 ft 42 kts 265°
2026-05-03 21:58 49.02278 2.55437 364 ft 107 kts 265°
2026-05-03 21:58 49.02197 2.54014 358 ft 161 kts 265°
2026-05-03 21:58 49.02084 2.52102 427 ft 193 kts 264°
2026-05-03 21:58 49.01989 2.50059 908 ft 193 kts 263°
2026-05-03 21:59 49.01873 2.48036 1556 ft 188 kts 263°
2026-05-03 21:59 49.01766 2.46081 2164 ft 186 kts 264°
2026-05-03 21:59 49.01672 2.44049 2399 ft 199 kts 264°
2026-05-03 21:59 49.01581 2.41911 2762 ft 205 kts 264°
2026-05-03 22:00 49.01461 2.39719 3177 ft 210 kts 263°
2026-05-03 22:00 49.01325 2.37412 3378 ft 229 kts 263°
2026-05-03 22:00 49.01239 2.34927 3677 ft 241 kts 275°
2026-05-03 22:00 49.01912 2.32537 3956 ft 257 kts 311°
2026-05-03 22:01 49.03232 2.30692 4319 ft 263 kts 309°
2026-05-03 22:01 49.04008 2.28217 4747 ft 262 kts 271°
2026-05-03 22:01 49.03776 2.25523 5356 ft 256 kts 256°
2026-05-03 22:01 49.03552 2.22792 5864 ft 263 kts 266°
2026-05-03 22:02 49.03585 2.19987 6522 ft 265 kts 271°
2026-05-03 22:02 49.03706 2.17183 7166 ft 267 kts 272°
2026-05-03 22:02 49.03852 2.14352 7776 ft 269 kts 272°
2026-05-03 22:02 49.04000 2.11498 8388 ft 271 kts 272°
2026-05-03 22:03 49.04148 2.08653 8981 ft 273 kts 272°
2026-05-03 22:03 49.04299 2.05750 9594 ft 276 kts 272°
2026-05-03 22:03 49.04451 2.02824 10164 ft 279 kts 272°
2026-05-03 22:03 49.04606 1.99806 10417 ft 295 kts 271°
2026-05-03 22:04 49.04769 1.96589 10572 ft 314 kts 272°
2026-05-03 22:04 49.04943 1.93159 10728 ft 334 kts 272°
2026-05-03 22:04 49.05126 1.89525 10944 ft 352 kts 272°
2026-05-03 22:04 49.05320 1.85745 11399 ft 362 kts 272°
2026-05-03 22:05 49.05517 1.81886 12014 ft 368 kts 272°
2026-05-03 22:05 49.05715 1.77978 12767 ft 370 kts 271°
2026-05-03 22:05 49.05911 1.74091 13540 ft 373 kts 271°
2026-05-03 22:05 49.06107 1.70129 14180 ft 377 kts 271°
2026-05-03 22:06 49.06302 1.66121 14809 ft 380 kts 271°
2026-05-03 22:06 49.06467 1.62085 15456 ft 381 kts 267°
2026-05-03 22:06 49.06310 1.58052 16006 ft 383 kts 261°
2026-05-03 22:06 49.05948 1.54008 16630 ft 386 kts 259°
2026-05-03 22:07 49.05546 1.49942 17274 ft 389 kts 259°
2026-05-03 22:07 49.05158 1.45845 17900 ft 392 kts 259°
2026-05-03 22:07 49.04794 1.41703 18472 ft 395 kts 259°
2026-05-03 22:07 49.04448 1.37532 19021 ft 398 kts 259°
2026-05-03 22:08 49.04109 1.33334 19614 ft 399 kts 259°
2026-05-03 22:08 49.03771 1.29128 20195 ft 401 kts 260°
2026-05-03 22:08 49.03426 1.24887 20704 ft 404 kts 260°
2026-05-03 22:08 49.03133 1.20669 21209 ft 408 kts 264°
2026-05-03 22:09 49.03123 1.16319 21710 ft 413 kts 268°
2026-05-03 22:09 49.03280 1.11923 22254 ft 416 kts 270°
2026-05-03 22:09 49.03484 1.07508 22788 ft 418 kts 270°
2026-05-03 22:10 49.03807 1.00130 23631 ft 422 kts 269°
2026-05-03 22:10 49.03974 0.95653 24074 ft 423 kts 269°
2026-05-03 22:10 49.04123 0.91167 24502 ft 425 kts 268°
2026-05-03 22:10 49.04261 0.86657 24950 ft 427 kts 268°
2026-05-03 22:11 49.04391 0.82108 25258 ft 432 kts 268°
2026-05-03 22:11 49.04518 0.77504 25615 ft 435 kts 268°
2026-05-03 22:11 49.04643 0.72886 26050 ft 437 kts 268°
2026-05-03 22:11 49.04768 0.68254 26499 ft 438 kts 267°
2026-05-03 22:12 49.04892 0.63605 26908 ft 440 kts 267°
2026-05-03 22:12 49.05015 0.58921 27291 ft 442 kts 267°
2026-05-03 22:12 49.05135 0.54229 27654 ft 445 kts 267°
2026-05-03 22:12 49.05256 0.49499 28021 ft 447 kts 266°
2026-05-03 22:13 49.05373 0.44823 28382 ft 449 kts 266°
2026-05-03 22:13 49.05490 0.40051 28725 ft 452 kts 266°
2026-05-03 22:13 49.05605 0.35250 28985 ft 455 kts 266°
2026-05-03 22:13 49.05720 0.30418 29351 ft 456 kts 266°
2026-05-03 22:14 49.05835 0.25593 29861 ft 454 kts 266°
2026-05-03 22:14 49.06057 0.15930 29980 ft 454 kts 266°
2026-05-03 22:15 49.06269 0.06350 29952 ft 451 kts 266°
2026-05-03 22:15 49.06469 -0.03204 29985 ft 451 kts 266°
2026-05-03 22:16 49.06663 -0.12769 29967 ft 451 kts 266°
2026-05-03 22:16 49.06850 -0.22342 29960 ft 451 kts 266°
2026-05-03 22:17 49.07028 -0.31851 29965 ft 451 kts 266°
2026-05-03 22:17 49.07200 -0.41427 29965 ft 451 kts 266°
2026-05-03 22:18 49.07365 -0.51005 29967 ft 452 kts 266°
2026-05-03 22:18 49.07523 -0.60582 29965 ft 452 kts 266°
2026-05-03 22:19 49.07672 -0.70155 29972 ft 452 kts 266°